Weather History for Louisburg, NC

Change the Weather History Date:

Friday, September 13, 2013

  Actual Average (KRDU) Record (KRDU)
Temperature  
Mean Temperature 76 °F 73 °F  
Max Temperature 87 °F 83 °F 94 °F (1936)
Min Temperature 64 °F 63 °F 48 °F (1985)
Degree Days  
Heating Degree Days 0 0  
Month to date heating degree days 0  
Since 1 July heating degree days 1  
Cooling Degree Days 10 8  
Month to date cooling degree days 128  
Year to date cooling degree days 1569  
Growing Degree Days 26 (Base 50)    
Moisture  
Dew Point 63 °F    
Average Humidity 65    
Maximum Humidity 88    
Minimum Humidity 35    
Precipitation  
Precipitation 0.00 in 0.16 in 2.36 in (1964)
Month to date precipitation 2.06  
Year to date precipitation 31.60  
Sea Level Pressure  
Sea Level Pressure 29.81 in    
Wind  
Wind Speed 1 mph (NW)    
Max Wind Speed 8 mph    
Max Gust Speed -    
Visibility 9 miles    
Events      
T = Trace of Precipitation, MM = Missing Value Source: NWS Daily Summary

Daily Weather History Graph

Daily Weather History Graph

Search for Another Location

Airport:

Trip Planner

Search our weather history database for the weather conditions in past years. The results will help you decide how hot, cold, wet, or windy it might be!

Date:

Astronomy

Sep. 13, 2013 Rise Set
Actual Time 6:54 AM EDT 7:23 PM EDT
Civil Twilight 6:28 AM EDT 7:48 PM EDT
Nautical Twilight 5:58 AM EDT 8:19 PM EDT
Astronomical Twilight 5:27 AM EDT 8:49 PM EDT
Moon 3:03 PM EDT (9/13) 12:30 AM EDT (9/13)
Length of Visible Light 13h 20m
Length of Day
12h 28m
First Quarter, 61% of the Moon is Illuminated
Sep 13
First Quarter
Sep 19
Full
Sep 26
Last Quarter
Oct 4
New
Oct 11
First Quarter

Hourly Weather History & Observations

Time (EDT) Temp. Heat Index Dew Point Humidity Pressure Visibility Wind Dir Wind Speed Gust Speed Precip Events Conditions
12:15 AM 77.0 °F - 69.8 °F 78% 29.81 in 10.0 mi Calm Calm - N/A   Clear
12:35 AM 77.0 °F - 69.8 °F 78% 29.81 in 10.0 mi Calm Calm - N/A   Clear
12:55 AM 77.0 °F - 69.8 °F 78% 29.81 in 7.0 mi Calm Calm - N/A   Clear
1:15 AM 75.2 °F - 69.8 °F 83% 29.81 in 7.0 mi Calm Calm - N/A   Clear
1:35 AM 73.4 °F - 69.8 °F 88% 29.81 in 7.0 mi Calm Calm - N/A   Clear
1:55 AM 73.4 °F - 69.8 °F 88% 29.80 in 7.0 mi Calm Calm - N/A   Clear
2:15 AM 73.4 °F - 69.8 °F 88% 29.79 in 7.0 mi Calm Calm - N/A   Clear
2:35 AM 73.4 °F - 69.8 °F 88% 29.79 in 7.0 mi Calm Calm - N/A   Clear
2:55 AM 73.4 °F - 69.8 °F 88% 29.79 in 7.0 mi Calm Calm - N/A   Clear
3:15 AM 73.4 °F - 69.8 °F 88% 29.78 in 7.0 mi Calm Calm - N/A   Clear
3:35 AM 73.4 °F - 69.8 °F 88% 29.78 in 7.0 mi Calm Calm - N/A   Clear
3:55 AM 73.4 °F - 69.8 °F 88% 29.78 in 7.0 mi Calm Calm - N/A   Clear
4:15 AM 73.4 °F - 68.0 °F 83% 29.78 in 7.0 mi Calm Calm - N/A   Clear
4:35 AM 73.4 °F - 68.0 °F 83% 29.78 in 7.0 mi Calm Calm - N/A   Clear
4:55 AM 73.4 °F - 68.0 °F 83% 29.77 in 7.0 mi Calm Calm - N/A   Clear
5:15 AM 73.4 °F - 68.0 °F 83% 29.77 in 7.0 mi Calm Calm - N/A   Clear
5:35 AM 73.4 °F - 68.0 °F 83% 29.78 in 7.0 mi Calm Calm - N/A   Scattered Clouds
5:55 AM 73.4 °F - 68.0 °F 83% 29.78 in 7.0 mi Calm Calm - N/A   Scattered Clouds
6:15 AM 73.4 °F - 68.0 °F 83% 29.78 in 7.0 mi Calm Calm - N/A   Clear
6:35 AM 73.4 °F - 68.0 °F 83% 29.79 in 7.0 mi Calm Calm - N/A   Clear
6:55 AM 73.4 °F - 66.2 °F 78% 29.79 in 7.0 mi Calm Calm - N/A   Mostly Cloudy
7:15 AM 73.4 °F - 66.2 °F 78% 29.80 in 7.0 mi Calm Calm - N/A   Mostly Cloudy
7:35 AM 73.4 °F - 66.2 °F 78% 29.80 in 7.0 mi Calm Calm - N/A   Overcast
7:55 AM 73.4 °F - 66.2 °F 78% 29.81 in 7.0 mi Calm Calm - N/A   Overcast
8:15 AM 73.4 °F - 66.2 °F 78% 29.81 in 7.0 mi Calm Calm - N/A   Scattered Clouds
8:35 AM 75.2 °F - 66.2 °F 73% 29.81 in 10.0 mi Calm Calm - N/A   Scattered Clouds
8:55 AM 77.0 °F - 66.2 °F 69% 29.82 in 10.0 mi Calm Calm - N/A   Clear
9:15 AM 77.0 °F - 66.2 °F 69% 29.82 in 10.0 mi Calm Calm - N/A   Scattered Clouds
9:35 AM 78.8 °F - 64.4 °F 61% 29.82 in 10.0 mi NW 5.8 mph - N/A   Clear
9:55 AM 80.6 °F 82.3 °F 64.4 °F 58% 29.82 in 10.0 mi NW 5.8 mph - N/A   Clear
10:15 AM 80.6 °F 81.8 °F 62.6 °F 54% 29.82 in 10.0 mi NW 6.9 mph - N/A   Clear
10:35 AM 82.4 °F 83.4 °F 62.6 °F 51% 29.82 in 10.0 mi WNW 3.5 mph - N/A   Clear
10:55 AM 82.4 °F 83.9 °F 64.4 °F 54% 29.82 in 10.0 mi NNW 4.6 mph - N/A   Clear
11:15 AM 82.4 °F 83.4 °F 62.6 °F 51% 29.82 in 10.0 mi NW 4.6 mph - N/A   Scattered Clouds
11:35 AM 82.4 °F 82.9 °F 60.8 °F 48% 29.82 in 10.0 mi NW 5.8 mph - N/A   Mostly Cloudy
11:55 AM 84.2 °F 85.0 °F 62.6 °F 48% 29.81 in 10.0 mi NW 3.5 mph - N/A   Scattered Clouds
12:15 PM 86.0 °F 86.1 °F 60.8 °F 43% 29.81 in 10.0 mi NNE 6.9 mph - N/A   Clear
12:35 PM 86.0 °F 86.1 °F 60.8 °F 43% 29.81 in 10.0 mi NW 5.8 mph - N/A   Clear
12:55 PM 86.0 °F 85.4 °F 59.0 °F 40% 29.80 in 10.0 mi North 4.6 mph - N/A   Mostly Cloudy
1:15 PM 84.2 °F 84.4 °F 60.8 °F 45% 29.80 in 10.0 mi Calm Calm - N/A   Mostly Cloudy
1:35 PM 86.0 °F 85.4 °F 59.0 °F 40% 29.79 in 10.0 mi NNW 4.6 mph - N/A   Mostly Cloudy
1:55 PM 86.0 °F 86.1 °F 60.8 °F 43% 29.79 in 10.0 mi NW 4.6 mph - N/A   Scattered Clouds
2:15 PM 87.8 °F 87.6 °F 60.8 °F 40% 29.79 in 10.0 mi North 6.9 mph - N/A   Scattered Clouds
2:35 PM 87.8 °F 87.6 °F 60.8 °F 40% 29.78 in 10.0 mi NNW 8.1 mph - N/A   Mostly Cloudy
2:55 PM 84.2 °F 83.8 °F 59.0 °F 42% 29.78 in 10.0 mi NNW 5.8 mph - N/A   Scattered Clouds
3:15 PM 86.0 °F 85.4 °F 59.0 °F 40% 29.78 in 10.0 mi NW 3.5 mph - N/A   Unknown
3:35 PM 87.8 °F 87.1 °F 59.0 °F 38% 29.77 in 10.0 mi NW 5.8 mph - N/A   Scattered Clouds
3:55 PM 87.8 °F 87.1 °F 59.0 °F 38% 29.77 in 10.0 mi NW 5.8 mph - N/A   Scattered Clouds
4:15 PM 87.8 °F 86.5 °F 57.2 °F 35% 29.78 in 10.0 mi NW 5.8 mph - N/A   Clear
4:35 PM 87.8 °F 86.5 °F 57.2 °F 35% 29.77 in 10.0 mi North 4.6 mph - N/A   Mostly Cloudy
4:55 PM 86.0 °F 85.4 °F 59.0 °F 40% 29.78 in 10.0 mi NW 4.6 mph - N/A   Scattered Clouds
5:15 PM 86.0 °F 85.4 °F 59.0 °F 40% 29.78 in 10.0 mi WNW 6.9 mph - N/A   Clear
5:35 PM 80.6 °F 81.1 °F 59.0 °F 48% 29.79 in 10.0 mi NW 3.5 mph - N/A   Scattered Clouds
5:55 PM 82.4 °F 82.0 °F 57.2 °F 42% 29.79 in 10.0 mi NW 4.6 mph - N/A   Mostly Cloudy
6:15 PM 82.4 °F 81.4 °F 53.6 °F 37% 29.80 in 10.0 mi NW 4.6 mph - N/A   Scattered Clouds
6:35 PM 80.6 °F 80.5 °F 55.4 °F 42% 29.80 in 10.0 mi Calm Calm - N/A   Scattered Clouds
6:55 PM 78.8 °F - 57.2 °F 47% 29.80 in 10.0 mi Calm Calm - N/A   Overcast
7:15 PM 75.2 °F - 60.8 °F 61% 29.81 in 10.0 mi Calm Calm - N/A   Overcast
7:35 PM 73.4 °F - 60.8 °F 65% 29.82 in 10.0 mi Calm Calm - N/A   Mostly Cloudy
7:55 PM 73.4 °F - 59.0 °F 61% 29.83 in 10.0 mi Calm Calm - N/A   Mostly Cloudy
8:15 PM 73.4 °F - 59.0 °F 61% 29.84 in 10.0 mi North 3.5 mph - N/A   Mostly Cloudy
8:35 PM 73.4 °F - 59.0 °F 61% 29.86 in 10.0 mi Calm Calm - N/A   Scattered Clouds
8:55 PM 71.6 °F - 59.0 °F 64% 29.87 in 10.0 mi Calm Calm - N/A   Scattered Clouds
9:15 PM 69.8 °F - 59.0 °F 68% 29.88 in 10.0 mi Calm Calm - N/A   Mostly Cloudy
9:35 PM 68.0 °F - 59.0 °F 73% 29.89 in 10.0 mi Calm Calm - N/A   Scattered Clouds
9:55 PM 68.0 °F - 59.0 °F 73% 29.89 in 10.0 mi Calm Calm - N/A   Scattered Clouds
10:15 PM 68.0 °F - 60.8 °F 78% 29.90 in 10.0 mi Calm Calm - N/A   Clear
10:35 PM 66.2 °F - 60.8 °F 83% 29.90 in 10.0 mi Calm Calm - N/A   Clear
10:55 PM 64.4 °F - 59.0 °F 83% 29.90 in 10.0 mi Calm Calm - N/A   Scattered Clouds
11:15 PM 64.4 °F - 59.0 °F 83% 29.90 in 10.0 mi Calm Calm - N/A   Scattered Clouds
11:35 PM 66.2 °F - 60.8 °F 83% 29.90 in 10.0 mi Calm Calm - N/A   Mostly Cloudy
11:55 PM 66.2 °F - 60.8 °F 83% 29.90 in 10.0 mi Calm Calm - N/A   Overcast